{"data":{"norad_id":60317,"epoch":"2026-05-25T03:05:21.126336Z","epoch_age_seconds":74407,"freshness":"FRESH","line1":"1 60317U 24133S   26145.12871674  .00000088  00000+0  15107-4 0  9997","line2":"2 60317  53.1606 301.9979 0001026  76.8846 283.2269 15.30197831103437","mean_motion":15.30197831,"eccentricity":0.0001026,"inclination_deg":53.1606,"raan_deg":301.9979,"arg_perigee_deg":76.8846,"mean_anomaly_deg":283.2269,"bstar":1.5107e-5,"rev_number":10343,"period_min":94.105479097363,"perigee_km":474.51839108322,"apogee_km":475.92470025679,"semimajor_km":6853.35854567,"source":"CELESTRAK","updated_at":"2026-05-25T13:38:19.231319Z"}}